This demonstration page uses our WeatherBlox Daily Observations layout. Learn more.

Left ArrowRight Arrow

Hourly Observations for February 24, 2021

Temp ( °F °C ) Dew Point ( °F °C ) Humidity (%) Winds ( mph kmh ) Pressure ( in mb ) Visibility ( mi km ) Precip ( " mm )
12:54 am 00:54 Clear 43 6.1 28 -2.2 56 56 NW 18 30 29.91 1013 10 16.0934 0 0
1:54 am 01:54 Clear 41 5 27 -2.8 57 57 NW 15 24 29.93 1014 10 16.0934 0 0
2:54 am 02:54 Clear 39 3.9 27 -2.8 62 62 NW 21 33 29.95 1014 10 16.0934 0 0
3:54 am 03:54 Clear 37 2.8 26 -3.3 65 65 NNW 25 41 29.97 1015 10 16.0934 0 0
4:54 am 04:54 Clear 36 2.2 26 -3.3 67 67 NNW 16 26 29.99 1016 10 16.0934 0 0
5:54 am 05:54 Clear 36 2.2 25 -3.9 64 64 NNW 16 26 30.04 1017 10 16.0934 0 0
6:54 am 06:54 Partly Cloudy 35 1.7 24 -4.4 64 64 NNW 21 33 30.06 1018 10 16.0934 0 0
7:54 am 07:54 Mostly Sunny 35 1.7 25 -3.9 67 67 N 20 31 30.06 1018 10 16.0934 0 0
8:10 am 08:10 Mostly Cloudy 35 1.7 25 -3.9 67 67 N 18 30 30.11 1020 10 16.0934 0 0
8:54 am 08:54 Cloudy 36 2.2 26 -3.3 67 67 N 21 33 30.13 1020 10 16.0934 0 0
9:54 am 09:54 Cloudy 37 2.8 26 -3.3 65 65 N 17 28 30.18 1022 10 16.0934 0 0
10:54 am 10:54 Cloudy 37 2.8 26 -3.3 65 65 N 15 24 30.22 1023 10 16.0934 0 0
11:54 am 11:54 Mostly Cloudy 37 2.8 27 -2.8 67 67 N 14 22 30.24 1024 10 16.0934 0 0
12:54 pm 12:54 Mostly Cloudy 39 3.9 26 -3.3 60 60 NNW 12 19 30.25 1024 10 16.0934 0 0
1:13 pm 13:13 Partly Cloudy 39 3.9 26 -3.3 60 60 N 13 20 30.27 1025 10 16.0934 0 0
1:54 pm 13:54 Sunny 39 3.9 27 -2.8 62 62 N 9 15 30.25 1025 10 16.0934 0 0
2:54 pm 14:54 Sunny 40 4.4 27 -2.8 60 60 N 14 22 30.27 1025 10 16.0934 0 0
3:54 pm 15:54 Sunny 40 4.4 28 -2.2 63 63 N 10 17 30.28 1025 10 16.0934 0 0
4:54 pm 16:54 Sunny 40 4.4 28 -2.2 63 63 NNE 5 7 30.29 1026 10 16.0934 0 0
5:54 pm 17:54 Sunny 37 2.8 28 -2.2 70 70 NE 5 7 30.31 1026 10 16.0934 0 0
6:54 pm 18:54 Clear 35 1.7 26 -3.3 70 70 E 5 7 30.33 1027 10 16.0934 0 0
7:54 pm 19:54 Clear 33 0.6 26 -3.3 75 75 Calm 30.35 1028 10 16.0934 0 0
8:54 pm 20:54 Clear 29 -1.7 23 -5 78 78 S 3 6 30.38 1029 10 16.0934 0 0
9:54 pm 21:54 Clear 30 -1.1 25 -3.9 82 82 Calm 30.41 1030 10 16.0934 0 0
10:54 pm 22:54 Clear 27 -2.8 23 -5 85 85 Calm 30.43 1030 10 16.0934 0 0
11:54 pm 23:54 Clear 28 -2.2 23 -5 81 81 Calm 30.42 1030 10 16.0934 0 0

Powered by AerisWeather